[[{"header":{"parameterUnit":"m.s-1","parameterCategory":2,"la1":30.2991,"la2":30.254,"lo1":-89.0895,"lo2":-89.0444,"dx":0.0017,"dy":0.0017,"nx":28,"ny":28,"refTime":"2023-01-30T15:00:00:Z","depth":"0","parameterNumber":2,"parameterNumberName":"U-component_of_CURRENTS"},"data":[0,0,0,0,0,0,0,0,0,0,0,0,0,0,0,0,0,0,0,0,0,0,0,0,0,0,0,0,0,0,0,0,0,0,0,0,0,0,0,0,0,0,0,0,0,0,0,0,0,0,0,0,0,0,0,0,0,0,0.6289,0.629,0,0.6313,0.6312,0.6312,0.6275,0.6275,0.6275,0.6274,0.6218,0.6217,0.6216,0,0,0,0,0,0,0,0,0,0,0,0,0,0.622,0.6221,0.6289,0.629,0.6291,0.6313,0.6312,0.6312,0.6275,0.6275,0.6274,0.6274,0.6218,0.6217,0.6215,0,0,0,0,0,0,0,0,0,0,0,0,0,0.6239,0.6221,0.6289,0.6283,0.6283,0.6313,0.6312,0.6312,0.6275,0.6275,0.6274,0.6274,0.6219,0.6217,0.6215,0.6217,0,0,0.621,0.6209,0,0,0,0,0,0,0,0,0.6238,0.624,0.6282,0.6283,0.6284,0.6299,0.6268,0.6279,0.6276,0.6268,0.6274,0.6273,0.6244,0.624,0.6234,0.6214,0.6211,0.621,0.6209,0.6208,0.6208,0,0,0,0,0,0,0,0.6236,0.6239,0.6289,0.6284,0.6285,0.6283,0.6283,0.627,0.625,0.6269,0.6269,0.6287,0.6242,0.6235,0.6232,0.6211,0.621,0.6208,0.6207,0.6207,0.6215,0.6216,0,0,0,0,0,0,0.6253,0.6238,0.6288,0.629,0.627,0.6285,0.6285,0.6287,0.6252,0.625,0.6287,0.6285,0.6239,0.6234,0.623,0.6224,0.6208,0.6207,0.6206,0.6214,0.6215,0.6217,0,0,0,0,0,0,0.6251,0.6257,0.6287,0.6273,0.6278,0.6288,0.6289,0.6288,0.6287,0.6269,0.6263,0.629,0.6238,0.6232,0.6227,0.6222,0.6206,0.6204,0.6212,0.6214,0.6216,0.6215,0,0,0,0,0,0,0.6249,0.6255,0.6257,0.6274,0.628,0.6309,0.6291,0.6289,0.6304,0.6301,0.6269,0.6263,0.6237,0.623,0.6225,0.6219,0.6203,0.6211,0.6213,0.6215,0.6214,0.6217,0.622,0,0,0,0,0,0.6246,0.6246,0.6256,0.6263,0.6283,0.6311,0.6312,0.6311,0.6305,0.6306,0.6289,0.6264,0.6241,0.6229,0.6223,0.6217,0.621,0.6213,0.6215,0.6213,0.6216,0.622,0,0,0,0,0,0,0.6212,0.6245,0.6255,0.6264,0.6293,0.6308,0.6313,0.632,0.6308,0.6302,0.6275,0.6268,0.6263,0.6252,0.6239,0.6232,0.6224,0.6225,0.6224,0.6227,0.623,0.6256,0.6201,0,0,0,0,0,0.6212,0.6216,0.6258,0.6263,0.6283,0.6301,0.6313,0.6319,0.6321,0.6315,0.629,0.6276,0.6271,0.6259,0.625,0.6241,0.6258,0.6239,0.6242,0.6244,0.6266,0.63,0.6307,0.6226,0.6226,0.6226,0,0,0.6196,0.622,0.6219,0.6257,0.6275,0.6297,0.6303,0.6326,0.6333,0.6311,0.6291,0.6285,0.6276,0.6265,0.6262,0.6251,0.6274,0.6248,0.6249,0.627,0.6303,0.6311,0.6318,0.6228,0.6227,0.6227,0,0,0.6172,0.6196,0.6195,0.6229,0.6276,0.6294,0.6308,0.6329,0.6326,0.6329,0.6315,0.6319,0.6292,0.6288,0.6285,0.6307,0.6294,0.6295,0.6316,0.6348,0.6355,0.6361,0.6376,0.6384,0.6288,0.6288,0.6288,0,0.6153,0.6164,0.62,0.6223,0.6255,0.6296,0.6316,0.6324,0.6332,0.6335,0.6325,0.6319,0.6309,0.6314,0.6323,0.6312,0.6323,0.6294,0.6351,0.6358,0.6364,0.6378,0.6387,0.6288,0.6288,0.6288,0.6288,0,0.6135,0.6155,0.6164,0.6203,0.624,0.6266,0.6311,0.6322,0.6331,0.6337,0.6347,0.6342,0.6342,0.6338,0.6336,0.637,0.6361,0.6353,0.6337,0.6372,0.6385,0.6393,0.6289,0.6289,0.6289,0.6288,0,0,0.6061,0.6133,0.6136,0.6152,0.6239,0.6254,0.6295,0.6332,0.6335,0.6349,0.635,0.637,0.6375,0.6377,0.6371,0.6402,0.6452,0.6399,0.64,0.6406,0.6512,0.6544,0.6556,0.6448,0.645,0.6451,0.6496,0,0.6034,0.6065,0.6117,0.6139,0.6165,0.6236,0.6258,0.6301,0.633,0.6331,0.6364,0.6361,0.6385,0.6378,0.6421,0.6437,0.6479,0.6441,0.6487,0.6489,0.6505,0.6569,0.6321,0.6345,0.6505,0.6506,0.6507,0,0.5999,0.6029,0.6055,0.6109,0.6124,0.6138,0.6196,0.622,0.6271,0.6294,0.6335,0.6354,0.6403,0.6414,0.6499,0.6469,0.651,0.6532,0.6534,0.6577,0.6538,0.6341,0.6355,0.6081,0.6521,0.652,0.6519,0,0.5922,0.5978,0.5992,0.6018,0.6088,0.6098,0.6127,0.6196,0.6207,0.6267,0.6272,0.635,0.6352,0.6443,0.6521,0.6507,0.6611,0.6585,0.6658,0.6658,0.6468,0.645,0.6219,0.6675,0.6674,0.6674,0.6674,0,0.5875,0.5871,0.5944,0.5946,0.5938,0.6022,0.6021,0.6065,0.6123,0.613,0.6227,0.6245,0.6363,0.6436,0.6524,0.6629,0.662,0.6692,0.6689,0.6461,0.6443,0.6217,0.6133,0.6676,0.6676,0.6675,0.6675,0,0.5762,0.5825,0.582,0.5882,0.5897,0.5878,0.5935,0.5939,0.6008,0.6024,0.6042,0.6154,0.6273,0.6402,0.6536,0.6606,0.6526,0.6758,0.6487,0.6456,0.6289,0.6218,0.596,0.5805,0.684,0.6841,0.6842,0,0.5696,0.5696,0.574,0.5738,0.5751,0.5761,0.5776,0.5862,0.5887,0.5971,0.5966,0.6088,0.6203,0.6419,0.6572,0.675,0.6512,0.6593,0.6554,0.6272,0.6189,0.5987,0.5858,0.6272,0.6269,0.6266,0.6263,0,0.5568,0.5588,0.5594,0.5604,0.5609,0.5603,0.5635,0.5637,0.5744,0.5795,0.5875,0.5979,0.6209,0.6296,0.653,0.6601,0.6247,0.6545,0.6285,0.5784,0.551,0.5358,0.6244,0.6237,0.624,0.6242,0.6243,0.6244,0.5461,0.5429,0.5465,0.545,0.5465,0.5438,0.5392,0.5459,0.5493,0.5525,0.5733,0.5835,0.594,0.627,0.6297,0.6087,0.6168,0.5912,0.5866,0.5699,0.5488,0.6357,0.6346,0.6349,0.6351,0.6354,0.6356,0,0.5328,0.5325,0.5316,0.5303,0.5272,0.5311,0.5297,0.524,0.5245,0.5358,0.5466,0.5539,0.5577,0.56,0.5541,0.5399,0.5176,0.5196,0.4754,0.4682,0.5449,0.5361,0.5094,0.5094,0.5094,0.5094,0.5095,0.5095,0.5255,0.5209,0.5206,0.5126,0.5112,0.5004,0.4957,0.4894,0.4932,0.4884,0.4903,0.499,0.5015,0.4951,0.4695,0.4595,0.4214,0.4109,0.4108,0.453,0.4587,0.4641,0.453,0.4093,0.4092,0.3115,0.3107,0.3101]},{"header":{"parameterUnit":"m.s-1","parameterCategory":2,"la1":30.2991,"la2":30.254,"lo1":-89.0895,"lo2":-89.0444,"dx":0.0017,"dy":0.0017,"nx":28,"ny":28,"refTime":"2023-01-30T15:00:00:Z","depth":"0","parameterNumber":3,"parameterNumberName":"V-component_of_CURRENTS"},"data":[0,0,0,0,0,0,0,0,0,0,0,0,0,0,0,0,0,0,0,0,0,0,0,0,0,0,0,0,0,0,0,0,0,0,0,0,0,0,0,0,0,0,0,0,0,0,0,0,0,0,0,0,0,0,0,0,0,0,-0.1009,-0.101,0,-0.1073,-0.1074,-0.1075,-0.1137,-0.1138,-0.1139,-0.1139,-0.1237,-0.1238,-0.124,0,0,0,0,0,0,0,0,0,0,0,0,0,-0.0964,-0.0964,-0.1009,-0.101,-0.1011,-0.1073,-0.1074,-0.1075,-0.1137,-0.1138,-0.1139,-0.114,-0.1236,-0.1238,-0.1241,0,0,0,0,0,0,0,0,0,0,0,0,0,-0.1002,-0.0964,-0.1009,-0.1048,-0.1052,-0.1073,-0.1074,-0.1075,-0.1137,-0.1138,-0.1139,-0.114,-0.1235,-0.1238,-0.1241,-0.1238,0,0,-0.125,-0.1251,0,0,0,0,0,0,0,0,-0.1,-0.1004,-0.1042,-0.1046,-0.105,-0.1097,-0.1093,-0.1131,-0.1137,-0.1106,-0.114,-0.1141,-0.1191,-0.1198,-0.1209,-0.1243,-0.1247,-0.125,-0.1252,-0.1253,-0.1254,0,0,0,0,0,0,0,-0.0997,-0.1002,-0.1036,-0.1042,-0.1047,-0.107,-0.1077,-0.1101,-0.1144,-0.1109,-0.1114,-0.1118,-0.1194,-0.1206,-0.1212,-0.1248,-0.125,-0.1253,-0.1254,-0.1255,-0.1306,-0.1305,0,0,0,0,0,0,-0.0984,-0.0999,-0.1034,-0.1038,-0.1025,-0.107,-0.1077,-0.1082,-0.1143,-0.1153,-0.1117,-0.1121,-0.1201,-0.1208,-0.1216,-0.1205,-0.1253,-0.1256,-0.1257,-0.1306,-0.1306,-0.1305,0,0,0,0,0,0,-0.0983,-0.0987,-0.1031,-0.1019,-0.1026,-0.1069,-0.1074,-0.1083,-0.1091,-0.1148,-0.1159,-0.1116,-0.1202,-0.1212,-0.1233,-0.1209,-0.1257,-0.126,-0.1307,-0.1306,-0.1306,-0.119,0,0,0,0,0,0,-0.0981,-0.0986,-0.0985,-0.1018,-0.1026,-0.1031,-0.1073,-0.1083,-0.1092,-0.1097,-0.1151,-0.1161,-0.1203,-0.1228,-0.1236,-0.1214,-0.1262,-0.1307,-0.1306,-0.1306,-0.1194,-0.1185,-0.1178,0,0,0,0,0,-0.098,-0.0971,-0.0985,-0.0989,-0.1024,-0.103,-0.1036,-0.1072,-0.109,-0.1084,-0.1126,-0.116,-0.1229,-0.123,-0.1239,-0.1218,-0.1308,-0.1307,-0.1306,-0.1198,-0.1187,-0.1178,0,0,0,0,0,0,-0.0957,-0.0978,-0.0993,-0.0994,-0.1005,-0.104,-0.104,-0.1059,-0.1086,-0.1093,-0.115,-0.1162,-0.1175,-0.1214,-0.1213,-0.1233,-0.1276,-0.1276,-0.119,-0.1181,-0.1173,-0.1145,-0.1264,0,0,0,0,0,-0.0948,-0.0943,-0.0969,-0.0966,-0.097,-0.1001,-0.1008,-0.1026,-0.1054,-0.1067,-0.1105,-0.1148,-0.1178,-0.1192,-0.1228,-0.1231,-0.1234,-0.1227,-0.1219,-0.1212,-0.1197,-0.118,-0.1168,-0.1302,-0.1302,-0.1302,0,0,-0.0936,-0.0948,-0.0945,-0.096,-0.0974,-0.0967,-0.1008,-0.1007,-0.1001,-0.1072,-0.1078,-0.1119,-0.1174,-0.1183,-0.1192,-0.1211,-0.1172,-0.121,-0.1203,-0.1193,-0.1178,-0.1164,-0.1152,-0.1302,-0.1302,-0.1302,0,0,-0.0899,-0.092,-0.0899,-0.0906,-0.0917,-0.0935,-0.0927,-0.0953,-0.0965,-0.0972,-0.1024,-0.1043,-0.1094,-0.112,-0.1142,-0.1108,-0.113,-0.1128,-0.1058,-0.1041,-0.1029,-0.1018,-0.0981,-0.0968,-0.1121,-0.1121,-0.1121,0,-0.0885,-0.0868,-0.0893,-0.0878,-0.0877,-0.0913,-0.0888,-0.0903,-0.0931,-0.0928,-0.0962,-0.1011,-0.106,-0.1057,-0.1054,-0.1085,-0.1075,-0.1086,-0.1026,-0.1016,-0.1007,-0.0972,-0.0959,-0.1115,-0.1116,-0.1116,-0.1117,0,-0.0833,-0.0822,-0.081,-0.0803,-0.0803,-0.0788,-0.0808,-0.0806,-0.0827,-0.0842,-0.0843,-0.0902,-0.0927,-0.0949,-0.0995,-0.0958,-0.0969,-0.1015,-0.104,-0.0986,-0.0953,-0.0941,-0.1107,-0.1109,-0.1111,-0.1112,0,0,-0.0794,-0.0776,-0.0772,-0.0748,-0.0762,-0.0746,-0.0735,-0.0723,-0.0697,-0.0733,-0.0697,-0.0757,-0.0782,-0.0809,-0.086,-0.0853,-0.0784,-0.0901,-0.0903,-0.0844,-0.0721,-0.0673,-0.0657,-0.0815,-0.0813,-0.0812,-0.0713,0,-0.0744,-0.0692,-0.0701,-0.0646,-0.0619,-0.0644,-0.0625,-0.0621,-0.0631,-0.0607,-0.065,-0.0647,-0.073,-0.0731,-0.0735,-0.0776,-0.0753,-0.0805,-0.0801,-0.08,-0.0748,-0.0642,-0.0538,-0.0437,-0.0702,-0.0701,-0.0699,0,-0.0689,-0.0661,-0.0599,-0.0555,-0.0544,-0.0521,-0.0483,-0.0467,-0.0458,-0.0463,-0.0466,-0.0503,-0.0499,-0.0581,-0.0588,-0.0616,-0.0652,-0.0686,-0.0683,-0.0671,-0.0731,-0.0542,-0.0407,-0.0672,-0.0682,-0.0684,-0.0685,0,-0.0634,-0.0585,-0.0526,-0.0516,-0.0481,-0.0451,-0.0432,-0.042,-0.0388,-0.0361,-0.0328,-0.0349,-0.0336,-0.0387,-0.0465,-0.0516,-0.0462,-0.0546,-0.0529,-0.0526,-0.0452,-0.0445,-0.0553,-0.0532,-0.0532,-0.0532,-0.0532,0,-0.0575,-0.0522,-0.0492,-0.046,-0.0381,-0.0384,-0.0309,-0.0293,-0.026,-0.0192,-0.0241,-0.0181,-0.0288,-0.0286,-0.0381,-0.0389,-0.0389,-0.0474,-0.0484,-0.0408,-0.0399,-0.0643,-0.0792,-0.0528,-0.0529,-0.053,-0.0531,0,-0.0506,-0.0492,-0.0416,-0.037,-0.0349,-0.0289,-0.0231,-0.0174,-0.0155,-0.0062,-0.0042,-0.0028,-0.0005,-0.0102,-0.0159,-0.0251,-0.0379,-0.0305,-0.0195,-0.0194,-0.0438,-0.0582,-0.0624,-0.0717,-0.0252,-0.025,-0.0248,0,-0.0456,-0.0417,-0.0347,-0.0301,-0.0272,-0.0202,-0.0149,-0.0121,-0.0058,0.0044,0.0112,0.0161,0.0248,0.0205,0.0069,-0.0019,-0.028,-0.0039,-0.0132,-0.0396,-0.0566,-0.0676,-0.0762,0.002,0.0024,0.0027,0.0029,0,-0.0369,-0.0354,-0.0298,-0.0211,-0.0143,-0.0062,0.0015,0.0086,0.0144,0.026,0.0427,0.0517,0.0495,0.0521,0.037,0.0241,-0.018,0.002,-0.0278,-0.0361,-0.0459,-0.057,-0.0114,0.0056,0.0054,0.0052,0.005,0.0049,-0.0306,-0.0257,-0.0203,-0.011,-0.0028,0.0084,0.0185,0.0297,0.0462,0.0706,0.0722,0.1032,0.0922,0.0777,0.0485,0.0056,0.0001,-0.0076,-0.0222,-0.0305,-0.0418,0.011,0.0267,0.0266,0.0264,0.0263,0.0262,0,-0.0239,-0.0194,-0.0107,0.0007,0.012,0.014,0.0303,0.0445,0.0701,0.103,0.1246,0.1584,0.1324,0.0959,0.04,-0.0062,-0.0298,-0.0363,-0.0537,-0.0612,-0.0141,-0.016,-0.0059,-0.0059,-0.0059,-0.0058,-0.0058,-0.0058,-0.0204,-0.0124,-0.0084,0.0107,0.0203,0.0391,0.0507,0.0752,0.104,0.16,0.2039,0.2301,0.2171,0.0782,-0.0209,-0.0481,-0.0903,-0.0903,-0.1181,-0.0936,-0.0924,-0.0913,-0.0971,-0.1041,-0.1042,-0.1564,-0.157,-0.1574]}],[{"header":{"parameterUnit":"m.s-1","parameterCategory":2,"la1":30.2991,"la2":30.254,"lo1":-89.0895,"lo2":-89.0444,"dx":0.0017,"dy":0.0017,"nx":28,"ny":28,"refTime":"2023-01-30T15:00:00:Z","depth":"2","parameterNumber":2,"parameterNumberName":"U-component_of_CURRENTS"},"data":[0,0,0,0,0,0,0,0,0,0,0,0,0,0,0,0,0,0,0,0,0,0,0,0,0,0,0,0,0,0,0,0,0,0,0,0,0,0,0,0,0,0,0,0,0,0,0,0,0,0,0,0,0,0,0,0,0,0,0.286,0.2859,0,0.2937,0.294,0.2943,0.2978,0.2976,0.2974,0.2972,0.2968,0.297,0.2972,0,0,0,0,0,0,0,0,0,0,0,0,0,0.2973,0.2971,0.286,0.2859,0.2858,0.2937,0.294,0.2943,0.2978,0.2976,0.2973,0.2971,0.2968,0.297,0.2972,0,0,0,0,0,0,0,0,0,0,0,0,0,0.2994,0.297,0.286,0.2869,0.2869,0.2936,0.294,0.2944,0.2979,0.2976,0.2973,0.297,0.2967,0.297,0.2972,0.3051,0,0,0.2981,0.2982,0,0,0,0,0,0,0,0,0.2993,0.2993,0.2869,0.2869,0.2868,0.2926,0.2977,0.2968,0.298,0.296,0.2972,0.2968,0.2935,0.294,0.2993,0.3051,0.305,0.2981,0.2982,0.2984,0.2984,0,0,0,0,0,0,0,0.2991,0.2991,0.2913,0.2868,0.2867,0.2946,0.2947,0.2979,0.2979,0.2962,0.2959,0.2934,0.2937,0.2991,0.2993,0.305,0.2981,0.2983,0.2985,0.2986,0.32,0.3204,0,0,0,0,0,0,0.2929,0.2988,0.291,0.2913,0.29,0.2944,0.2946,0.2928,0.2981,0.298,0.2937,0.2935,0.2988,0.299,0.2992,0.3056,0.2984,0.2986,0.2988,0.3196,0.3201,0.3205,0,0,0,0,0,0,0.2932,0.2922,0.2906,0.2935,0.2935,0.2941,0.2925,0.2931,0.3022,0.2958,0.296,0.3021,0.2986,0.2989,0.3044,0.3056,0.2987,0.299,0.3191,0.3197,0.3203,0.3203,0,0,0,0,0,0,0.2935,0.2923,0.289,0.2931,0.293,0.2912,0.2926,0.2934,0.2998,0.2999,0.3031,0.3025,0.2983,0.304,0.3047,0.3059,0.2992,0.3186,0.3194,0.3201,0.3197,0.3208,0.3217,0,0,0,0,0,0.2939,0.2891,0.2889,0.2878,0.2885,0.2909,0.2921,0.2931,0.3005,0.3017,0.3074,0.3026,0.3092,0.3046,0.3053,0.3065,0.3182,0.3192,0.32,0.3193,0.3206,0.3216,0,0,0,0,0,0,0.2883,0.289,0.2888,0.2832,0.2851,0.2906,0.2912,0.2981,0.3056,0.3064,0.3081,0.3078,0.3138,0.3133,0.3083,0.3161,0.3131,0.3142,0.3123,0.3135,0.3145,0.3201,0.2994,0,0,0,0,0,0.2861,0.2862,0.2861,0.2824,0.2836,0.2914,0.2936,0.2952,0.3011,0.3047,0.3095,0.3143,0.3186,0.3182,0.3215,0.3258,0.3306,0.3279,0.3288,0.3296,0.3355,0.3472,0.3496,0.3235,0.3235,0.3235,0,0,0.2853,0.283,0.2844,0.2819,0.2858,0.2888,0.2927,0.2954,0.3004,0.3031,0.3147,0.3192,0.3219,0.3255,0.3279,0.3239,0.3386,0.3307,0.3312,0.3369,0.3484,0.3509,0.3531,0.3241,0.324,0.3239,0,0,0.2834,0.2804,0.2817,0.2834,0.2838,0.2872,0.29,0.2987,0.3039,0.3146,0.3183,0.3263,0.3338,0.3344,0.3363,0.3471,0.3457,0.3467,0.3522,0.3632,0.3654,0.3674,0.3707,0.373,0.3439,0.3439,0.3439,0,0.2799,0.2804,0.282,0.2826,0.2842,0.2888,0.2923,0.2983,0.3085,0.3156,0.3167,0.3382,0.3392,0.3459,0.3491,0.3487,0.3533,0.345,0.3641,0.3663,0.3683,0.3713,0.3738,0.344,0.344,0.344,0.344,0,0.2811,0.2813,0.2823,0.2857,0.2879,0.29,0.2955,0.3031,0.3136,0.3215,0.3359,0.3412,0.3537,0.3538,0.3552,0.3686,0.3662,0.3654,0.3595,0.3709,0.3733,0.3759,0.3442,0.3442,0.3441,0.3441,0,0,0.2765,0.2818,0.283,0.2867,0.2895,0.2929,0.3005,0.3097,0.3209,0.3308,0.3469,0.3567,0.3641,0.3677,0.3684,0.3775,0.3931,0.3784,0.3789,0.3788,0.4139,0.3933,0.3941,0.3952,0.3958,0.3963,0.4072,0,0.2776,0.2791,0.2827,0.2904,0.2936,0.2999,0.3077,0.3166,0.3278,0.3432,0.3515,0.3676,0.3665,0.3751,0.3832,0.3934,0.4015,0.3901,0.4059,0.4064,0.3844,0.3971,0.3695,0.3756,0.4098,0.4102,0.4106,0,0.279,0.2802,0.285,0.2951,0.2979,0.3035,0.3189,0.3263,0.3434,0.3541,0.3684,0.3784,0.3934,0.3934,0.4132,0.4061,0.4138,0.4194,0.4198,0.4044,0.3911,0.3717,0.3791,0.415,0.4146,0.4143,0.414,0,0.2758,0.2837,0.2876,0.2905,0.3009,0.3084,0.316,0.3315,0.3427,0.3643,0.3789,0.3926,0.4071,0.4183,0.4282,0.4257,0.4484,0.4441,0.4312,0.4293,0.4115,0.407,0.4637,0.4637,0.4637,0.4637,0.4636,0,0.2722,0.2792,0.2884,0.2902,0.2996,0.3097,0.3268,0.3338,0.3542,0.3672,0.3857,0.3971,0.4176,0.4297,0.434,0.4378,0.4523,0.4375,0.4341,0.4096,0.4051,0.4452,0.4429,0.4641,0.464,0.4639,0.4638,0,0.2669,0.2736,0.2808,0.2926,0.2967,0.3049,0.3286,0.3405,0.362,0.3795,0.3892,0.4099,0.4238,0.4352,0.4532,0.4463,0.4511,0.4491,0.4142,0.4065,0.423,0.4206,0.4383,0.4377,0.4372,0.4368,0.4365,0,0.265,0.2665,0.276,0.2817,0.2877,0.3056,0.3143,0.3377,0.3499,0.3813,0.3841,0.4102,0.4159,0.4293,0.4272,0.429,0.4421,0.4041,0.3955,0.4271,0.4222,0.4205,0.4189,0.3704,0.3695,0.3688,0.3683,0,0.2635,0.2665,0.2709,0.2741,0.285,0.2968,0.3116,0.3195,0.3462,0.3627,0.3721,0.3817,0.3974,0.3855,0.3927,0.3888,0.4001,0.3894,0.4396,0.3776,0.3631,0.358,0.3588,0.3621,0.3627,0.3631,0.3635,0.3637,0.2661,0.2624,0.2658,0.2713,0.281,0.2813,0.2844,0.2995,0.3117,0.323,0.3396,0.3443,0.3553,0.3471,0.3384,0.3366,0.3629,0.3523,0.3546,0.3577,0.3445,0.3296,0.3195,0.3199,0.3202,0.3205,0.3207,0,0.2578,0.2558,0.262,0.2647,0.267,0.2756,0.2776,0.2764,0.2765,0.2888,0.2954,0.2779,0.2775,0.2908,0.2791,0.2796,0.2795,0.2703,0.271,0.2774,0.2831,0.2661,0.2204,0.22,0.2197,0.2194,0,0,0.2576,0.2556,0.2547,0.2562,0.2551,0.2474,0.2419,0.2358,0.2386,0.23,0.2328,0.2548,0.2774,0.2407,0.2407,0.2289,0.2493,0.22,0.3017,0.3086,0.3137,0.333,0.3144,0,0,0,0,0]},{"header":{"parameterUnit":"m.s-1","parameterCategory":2,"la1":30.2991,"la2":30.254,"lo1":-89.0895,"lo2":-89.0444,"dx":0.0017,"dy":0.0017,"nx":28,"ny":28,"refTime":"2023-01-30T15:00:00:Z","depth":"2","parameterNumber":3,"parameterNumberName":"V-component_of_CURRENTS"},"data":[0,0,0,0,0,0,0,0,0,0,0,0,0,0,0,0,0,0,0,0,0,0,0,0,0,0,0,0,0,0,0,0,0,0,0,0,0,0,0,0,0,0,0,0,0,0,0,0,0,0,0,0,0,0,0,0,0,0,0.0516,0.0518,0,0.0492,0.049,0.0488,0.0395,0.0394,0.0394,0.0394,0.0259,0.0255,0.0252,0,0,0,0,0,0,0,0,0,0,0,0,0,0.0416,0.0417,0.0516,0.0518,0.0519,0.0492,0.049,0.0487,0.0395,0.0394,0.0394,0.0394,0.026,0.0256,0.0252,0,0,0,0,0,0,0,0,0,0,0,0,0,0.0413,0.0417,0.0516,0.0485,0.0483,0.0492,0.0489,0.0487,0.0395,0.0394,0.0394,0.0394,0.0261,0.0256,0.0251,0.0227,0,0,0.0236,0.0233,0,0,0,0,0,0,0,0,0.0413,0.0414,0.0488,0.0487,0.0486,0.0464,0.0406,0.0402,0.0395,0.0407,0.0394,0.0393,0.0331,0.032,0.0288,0.0221,0.0215,0.0235,0.0232,0.023,0.0229,0,0,0,0,0,0,0,0.0413,0.0414,0.0485,0.049,0.0489,0.0451,0.0448,0.0403,0.0353,0.0405,0.0404,0.0434,0.0326,0.0293,0.0285,0.0213,0.0235,0.0231,0.0228,0.0226,0.0077,0.0077,0,0,0,0,0,0,0.0462,0.0415,0.0487,0.0487,0.0471,0.0455,0.0451,0.0454,0.0356,0.0347,0.0434,0.043,0.0302,0.0291,0.028,0.0259,0.023,0.0225,0.0222,0.0078,0.0077,0.0076,0,0,0,0,0,0,0.0459,0.0467,0.0488,0.0468,0.0471,0.046,0.0463,0.0455,0.0429,0.0383,0.0368,0.0421,0.0301,0.0287,0.0236,0.0253,0.0223,0.0218,0.0079,0.0078,0.0077,0.0209,0,0,0,0,0,0,0.0456,0.0465,0.0474,0.0471,0.0475,0.0519,0.0465,0.0455,0.0458,0.0451,0.0367,0.0353,0.03,0.0243,0.0231,0.0245,0.0214,0.0081,0.0079,0.0077,0.0206,0.0213,0.0218,0,0,0,0,0,0.0451,0.0496,0.0474,0.0484,0.0489,0.0523,0.0518,0.0495,0.0458,0.0462,0.0386,0.0356,0.0223,0.0239,0.0224,0.0238,0.0081,0.0079,0.0077,0.0203,0.0211,0.0218,0,0,0,0,0,0,0.047,0.0492,0.0468,0.0516,0.0526,0.0516,0.0531,0.0504,0.0445,0.0432,0.035,0.0332,0.0289,0.0237,0.0256,0.0183,0.0145,0.014,0.0246,0.0252,0.0258,0.0307,0.021,0,0,0,0,0,0.0478,0.0498,0.0517,0.0551,0.0561,0.0535,0.0542,0.0533,0.0499,0.0471,0.041,0.0333,0.0266,0.0242,0.0177,0.0149,0.0111,0.014,0.0147,0.0153,0.0177,0.0125,0.0131,0.007,0.007,0.007,0,0,0.0496,0.0513,0.0524,0.0554,0.0546,0.0573,0.0532,0.0567,0.0574,0.0467,0.0433,0.0356,0.0259,0.0219,0.0196,0.0183,0.0147,0.015,0.0157,0.0178,0.0124,0.013,0.0136,0.0068,0.0068,0.0069,0,0,0.0554,0.0552,0.0585,0.0598,0.0629,0.0619,0.0636,0.0627,0.0605,0.0577,0.0488,0.0427,0.0333,0.0273,0.0226,0.0227,0.0177,0.0197,0.028,0.023,0.0236,0.024,0.0206,0.0206,0.0207,0.0208,0.0208,0,0.0565,0.0612,0.0604,0.0642,0.0669,0.0644,0.0688,0.0667,0.0638,0.0629,0.0587,0.044,0.0361,0.0309,0.0299,0.0248,0.0213,0.027,0.0244,0.0247,0.025,0.0213,0.0212,0.0214,0.0213,0.0212,0.0212,0,0.065,0.0677,0.0707,0.0727,0.075,0.0796,0.0791,0.0788,0.0753,0.0729,0.0677,0.0562,0.0483,0.0437,0.0367,0.0342,0.031,0.0258,0.0243,0.0266,0.0223,0.022,0.0222,0.022,0.0218,0.0217,0,0,0.0686,0.075,0.0756,0.0781,0.0805,0.0842,0.0856,0.0874,0.0895,0.083,0.0839,0.0702,0.0649,0.059,0.0495,0.0448,0.0425,0.0374,0.0369,0.0373,0.0329,0.0253,0.0241,0.0374,0.0374,0.0374,0.0296,0,0.0743,0.084,0.0851,0.0923,0.0969,0.0956,0.0979,0.0987,0.0968,0.0968,0.0864,0.0823,0.0705,0.0672,0.0607,0.0475,0.0422,0.0452,0.0278,0.0273,0.0229,0.0236,0.0259,0.0186,0.0292,0.0292,0.0291,0,0.0815,0.0872,0.0964,0.1031,0.105,0.1086,0.1134,0.1157,0.1146,0.1126,0.1075,0.0997,0.0915,0.0808,0.0624,0.0651,0.0505,0.0397,0.039,0.0276,0.0191,0.0173,0.0175,0.0285,0.0286,0.0286,0.0286,0,0.0863,0.0949,0.1028,0.105,0.1117,0.1153,0.119,0.1207,0.125,0.1236,0.1259,0.1142,0.1097,0.0914,0.0677,0.0658,0.0476,0.0417,0.021,0.0203,0.0167,0.0156,0.0282,0.0282,0.0283,0.0283,0.0283,0,0.0929,0.0988,0.106,0.1105,0.1214,0.1226,0.1317,0.1347,0.1384,0.1467,0.1349,0.1375,0.1121,0.0983,0.0748,0.0479,0.0523,0.0237,0.0178,0.0209,0.0204,0.024,0.0236,0.028,0.028,0.0281,0.0282,0,0.0978,0.1014,0.111,0.1199,0.1243,0.1322,0.143,0.1493,0.1516,0.1624,0.1632,0.1559,0.1381,0.11,0.0809,0.0579,0.032,0.0199,0.0257,0.0206,0.0069,0.0073,-0.0007,-0.001,-0.0013,-0.0015,-0.0017,0,0.1024,0.1079,0.1198,0.1262,0.131,0.1414,0.1497,0.1561,0.1651,0.1745,0.1823,0.1694,0.1601,0.1142,0.0723,0.0305,0.0268,0.0057,0.0005,0.0089,0.004,0.0048,0.0055,0.0014,0.0012,0.0011,0.001,0,0.1103,0.1129,0.1196,0.135,0.1448,0.1576,0.1713,0.1811,0.1908,0.1987,0.2078,0.2009,0.1585,0.1163,0.0588,0.0313,0.0128,0.0015,0.0097,0.0073,0.0098,0.0053,0.0062,-0.0001,-0.0,0.0001,0.0001,0.0002,0.1147,0.1202,0.1285,0.1434,0.157,0.1751,0.1859,0.1985,0.2143,0.2255,0.2221,0.2079,0.1662,0.0872,0.0446,0.0,0.0012,-0.0143,-0.0134,-0.0125,-0.012,-0.0102,-0.0237,-0.0237,-0.0237,-0.0237,-0.0237,0,0.1205,0.1265,0.1378,0.1558,0.1734,0.1796,0.2017,0.2089,0.2268,0.2298,0.2293,0.1838,0.1374,0.0899,0.0217,-0.018,-0.0183,-0.0285,-0.0188,-0.0176,-0.0165,-0.0157,-0.0287,-0.0288,-0.0289,-0.0289,0,0,0.1217,0.1305,0.1358,0.1652,0.1814,0.2016,0.2139,0.2245,0.2291,0.2255,0.2143,0.196,0.1436,0.0943,0.0437,0.0076,0.0039,-0.0,0.0075,0.0262,0.0278,-0.0055,-0.0027,0,0,0,0,0]}],[{"header":{"parameterUnit":"m.s-1","parameterCategory":2,"la1":30.2991,"la2":30.254,"lo1":-89.0895,"lo2":-89.0444,"dx":0.0017,"dy":0.0017,"nx":28,"ny":28,"refTime":"2023-01-30T15:00:00:Z","depth":"4","parameterNumber":2,"parameterNumberName":"U-component_of_CURRENTS"},"data":[0,0,0,0,0,0,0,0,0,0,0,0,0,0,0,0,0,0,0,0,0,0,0,0,0,0,0,0,0,0,0,0,0,0,0,0,0,0,0,0,0,0,0,0,0,0,0,0,0,0,0,0,0,0,0,0,0,0,0.1264,0.1264,0,0.1152,0.115,0.1147,0.1162,0.1164,0.1167,0.117,0.1332,0.1334,0.1336,0,0,0,0,0,0,0,0,0,0,0,0,0,0.1241,0.1242,0.1264,0.1264,0.1263,0.1152,0.1149,0.1147,0.1161,0.1164,0.1168,0.1171,0.1332,0.1334,0.1336,0,0,0,0,0,0,0,0,0,0,0,0,0,0.1193,0.1242,0.1264,0.1265,0.1264,0.1153,0.1149,0.1146,0.116,0.1165,0.1169,0.1173,0.1331,0.1334,0.1336,0.1268,0,0,0.1344,0.1345,0,0,0,0,0,0,0,0,0.1196,0.1192,0.1265,0.1265,0.1264,0.1184,0.1201,0.1204,0.1159,0.1189,0.117,0.1175,0.1312,0.1316,0.1267,0.1276,0.1283,0.1344,0.1346,0.1347,0.1348,0,0,0,0,0,0,0,0.1199,0.1196,0.1209,0.1265,0.1264,0.1186,0.1184,0.1199,0.1225,0.1186,0.119,0.1193,0.1313,0.1264,0.1272,0.1285,0.1344,0.1347,0.1348,0.1349,0.1488,0.149,0,0,0,0,0,0,0.1243,0.12,0.1213,0.1207,0.1251,0.1185,0.1182,0.1197,0.1219,0.1227,0.1189,0.1194,0.1257,0.1269,0.1278,0.1412,0.1347,0.1349,0.1351,0.1486,0.1489,0.1491,0,0,0,0,0,0,0.1243,0.1245,0.1217,0.1208,0.1201,0.1184,0.1197,0.1193,0.1209,0.122,0.1233,0.1221,0.1261,0.1275,0.1385,0.1412,0.1351,0.1353,0.1484,0.1487,0.149,0.1545,0,0,0,0,0,0,0.1243,0.1246,0.1269,0.1212,0.1204,0.1213,0.1194,0.1188,0.1206,0.1213,0.125,0.1265,0.1266,0.1381,0.1388,0.1414,0.1355,0.1481,0.1485,0.1489,0.1541,0.155,0.1558,0,0,0,0,0,0.1242,0.1252,0.1271,0.1273,0.1237,0.1215,0.1203,0.1195,0.1205,0.1222,0.1276,0.1267,0.1411,0.1386,0.1393,0.142,0.1479,0.1484,0.1489,0.1537,0.1548,0.1558,0,0,0,0,0,0,0.1234,0.1253,0.1273,0.1286,0.1289,0.1224,0.1226,0.1222,0.1257,0.1288,0.1302,0.1321,0.1423,0.142,0.1393,0.1474,0.1438,0.1445,0.1473,0.1483,0.1492,0.1514,0.1357,0,0,0,0,0,0.125,0.1272,0.1279,0.1288,0.1305,0.1275,0.1266,0.127,0.1288,0.1304,0.133,0.1373,0.1424,0.1464,0.1497,0.1543,0.1552,0.1564,0.1573,0.158,0.1604,0.1657,0.1673,0.1507,0.1507,0.1507,0,0,0.1241,0.1257,0.1267,0.129,0.1284,0.1301,0.128,0.1292,0.1309,0.1322,0.1372,0.1413,0.145,0.151,0.1552,0.1527,0.1628,0.1586,0.1592,0.1613,0.1664,0.168,0.1694,0.151,0.151,0.1509,0,0,0.1231,0.1269,0.1295,0.1312,0.1343,0.1332,0.1362,0.1349,0.1365,0.1421,0.1439,0.152,0.1565,0.1595,0.1618,0.1697,0.1679,0.1697,0.1751,0.1802,0.1816,0.1828,0.184,0.1854,0.1692,0.1692,0.1693,0,0.123,0.1264,0.1293,0.1326,0.1343,0.1367,0.1396,0.1398,0.1421,0.1457,0.1472,0.1571,0.1604,0.1686,0.1718,0.1716,0.1732,0.1704,0.1813,0.1825,0.1837,0.1847,0.1861,0.1696,0.1695,0.1695,0.1695,0,0.124,0.1281,0.1297,0.1362,0.1385,0.1409,0.1446,0.1482,0.1517,0.1531,0.1637,0.1676,0.1747,0.1752,0.1768,0.1858,0.1837,0.1821,0.1782,0.1857,0.1862,0.1876,0.17,0.1699,0.1698,0.1697,0,0,0.12,0.1292,0.1301,0.1343,0.1412,0.1425,0.149,0.1551,0.1609,0.1656,0.173,0.1815,0.1853,0.1884,0.1895,0.1936,0.2024,0.1923,0.1924,0.1929,0.2121,0.2007,0.201,0.203,0.2033,0.2036,0.2082,0,0.1207,0.1272,0.1318,0.1379,0.142,0.148,0.1532,0.16,0.1664,0.1742,0.1812,0.1904,0.1894,0.1952,0.1993,0.2037,0.2067,0.2012,0.2055,0.2056,0.1941,0.2025,0.2046,0.2092,0.2095,0.2097,0.2099,0,0.1206,0.1253,0.1317,0.141,0.1438,0.1487,0.1599,0.165,0.1775,0.1837,0.1944,0.2001,0.211,0.2077,0.218,0.215,0.2153,0.2157,0.2159,0.205,0.1969,0.2009,0.2123,0.2121,0.2119,0.2117,0.2116,0,0.1156,0.1251,0.1303,0.1331,0.144,0.15,0.1575,0.1696,0.1755,0.1923,0.2002,0.2119,0.2213,0.2244,0.2286,0.2251,0.237,0.2311,0.2196,0.2186,0.2246,0.2232,0.2371,0.2371,0.2371,0.2371,0.2371,0,0.1128,0.1169,0.1296,0.1321,0.1404,0.1498,0.1599,0.1698,0.1834,0.1923,0.2062,0.2144,0.2271,0.2347,0.2333,0.2324,0.2414,0.2233,0.2208,0.2264,0.2252,0.2254,0.2239,0.2373,0.2372,0.2372,0.2372,0,0.1047,0.1127,0.1195,0.1331,0.1381,0.1448,0.1605,0.1672,0.1831,0.1952,0.2022,0.2212,0.2334,0.2403,0.2481,0.2392,0.2382,0.2343,0.241,0.2383,0.2139,0.2127,0.2209,0.2206,0.2203,0.2201,0.2199,0,0.1007,0.1032,0.1184,0.123,0.1299,0.1411,0.1485,0.1657,0.1728,0.196,0.2008,0.221,0.2312,0.2331,0.2413,0.24,0.2357,0.2323,0.2222,0.2163,0.2132,0.2124,0.2116,0.2194,0.2194,0.2193,0.2192,0,0.0916,0.0982,0.1041,0.1146,0.1238,0.1312,0.1442,0.1489,0.1684,0.1838,0.1963,0.2046,0.2184,0.2259,0.2301,0.2266,0.2334,0.2293,0.2296,0.22,0.2146,0.2116,0.2111,0.2183,0.2184,0.2185,0.2186,0,0.0848,0.0876,0.0966,0.1048,0.1135,0.1189,0.1281,0.1388,0.1487,0.1751,0.1787,0.1991,0.2169,0.219,0.2206,0.2208,0.2144,0.203,0.2045,0.2057,0.1988,0.1896,0.1859,0,0,0,0,0,0.0781,0.0803,0.086,0.0944,0.1012,0.1076,0.1226,0.1322,0.1525,0.1567,0.1672,0.1788,0.1886,0.1988,0.1955,0.2114,0.2135,0.2062,0.2007,0.213,0.2141,0.2076,0,0,0,0,0,0,0.0744,0.0781,0.0822,0.0815,0.0851,0.0927,0.1026,0.1175,0.1212,0.1428,0.1502,0.1649,0.178,0.1882,0.1911,0.1936,0.1857,0.2179,0.2174,0.2124,0.2134,0.2143,0.208,0,0,0,0,0]},{"header":{"parameterUnit":"m.s-1","parameterCategory":2,"la1":30.2991,"la2":30.254,"lo1":-89.0895,"lo2":-89.0444,"dx":0.0017,"dy":0.0017,"nx":28,"ny":28,"refTime":"2023-01-30T15:00:00:Z","depth":"4","parameterNumber":3,"parameterNumberName":"V-component_of_CURRENTS"},"data":[0,0,0,0,0,0,0,0,0,0,0,0,0,0,0,0,0,0,0,0,0,0,0,0,0,0,0,0,0,0,0,0,0,0,0,0,0,0,0,0,0,0,0,0,0,0,0,0,0,0,0,0,0,0,0,0,0,0,0.0419,0.0419,0,0.0428,0.0428,0.0428,0.0433,0.0433,0.0433,0.0433,0.0371,0.0369,0.0368,0,0,0,0,0,0,0,0,0,0,0,0,0,0.0425,0.0425,0.0419,0.0419,0.0419,0.0428,0.0428,0.0428,0.0433,0.0433,0.0433,0.0433,0.0371,0.037,0.0368,0,0,0,0,0,0,0,0,0,0,0,0,0,0.0428,0.0425,0.0419,0.0421,0.0422,0.0428,0.0428,0.0428,0.0433,0.0433,0.0433,0.0432,0.0372,0.037,0.0368,0.0357,0,0,0.0361,0.036,0,0,0,0,0,0,0,0,0.0428,0.0428,0.0421,0.0421,0.0421,0.0428,0.0408,0.0401,0.0433,0.043,0.0433,0.0432,0.0383,0.0379,0.0385,0.0354,0.0352,0.036,0.0359,0.0358,0.0357,0,0,0,0,0,0,0,0.0428,0.0428,0.0424,0.0421,0.0421,0.0428,0.0428,0.0407,0.0407,0.043,0.043,0.0429,0.0382,0.0387,0.0383,0.0351,0.036,0.0358,0.0357,0.0356,0.0285,0.0284,0,0,0,0,0,0,0.0423,0.0428,0.0424,0.0424,0.0423,0.0428,0.0428,0.0427,0.0409,0.0406,0.0429,0.0429,0.0391,0.0386,0.0381,0.037,0.0358,0.0356,0.0355,0.0285,0.0285,0.0284,0,0,0,0,0,0,0.0423,0.0423,0.0423,0.0425,0.0425,0.0428,0.0427,0.0427,0.0445,0.0409,0.0405,0.0448,0.0391,0.0384,0.0368,0.0368,0.0355,0.0353,0.0286,0.0285,0.0285,0.0347,0,0,0,0,0,0,0.0423,0.0423,0.0426,0.0425,0.0425,0.0438,0.0427,0.0428,0.0443,0.0444,0.0423,0.0416,0.039,0.0372,0.0366,0.0364,0.0351,0.0287,0.0286,0.0285,0.0346,0.0349,0.0351,0,0,0,0,0,0.0424,0.0438,0.0426,0.0426,0.0428,0.0439,0.044,0.0442,0.0445,0.0457,0.0438,0.0418,0.036,0.037,0.0363,0.0361,0.0287,0.0286,0.0285,0.0344,0.0348,0.0351,0,0,0,0,0,0,0.0439,0.0439,0.0427,0.0438,0.0438,0.0439,0.0453,0.0454,0.0452,0.0453,0.0421,0.0413,0.0392,0.0368,0.0379,0.0334,0.0316,0.0314,0.0364,0.0367,0.037,0.0388,0.0349,0,0,0,0,0,0.0442,0.0455,0.0447,0.0456,0.0459,0.0458,0.0465,0.0466,0.0461,0.0463,0.0447,0.0417,0.038,0.037,0.0337,0.0325,0.0274,0.0313,0.0316,0.0318,0.0326,0.0242,0.0238,0.028,0.028,0.028,0,0,0.0449,0.0451,0.0457,0.046,0.0462,0.0477,0.0463,0.0481,0.0492,0.0453,0.0467,0.0429,0.0377,0.0356,0.0345,0.0339,0.0277,0.0317,0.032,0.0326,0.0241,0.0237,0.0233,0.028,0.028,0.028,0,0,0.0479,0.0472,0.0495,0.0499,0.0505,0.0503,0.0512,0.052,0.0522,0.0526,0.0486,0.0454,0.0424,0.038,0.0352,0.0349,0.0291,0.0335,0.0371,0.029,0.0286,0.0282,0.0208,0.0196,0.0341,0.0341,0.0341,0,0.0486,0.051,0.0503,0.0525,0.0533,0.0519,0.0545,0.0543,0.0544,0.0541,0.0538,0.0468,0.0432,0.0379,0.038,0.0357,0.0303,0.0368,0.0294,0.0289,0.0284,0.0209,0.0196,0.0344,0.0344,0.0343,0.0343,0,0.0534,0.0549,0.0566,0.0584,0.0591,0.0613,0.0603,0.0612,0.0612,0.0601,0.0566,0.0511,0.0469,0.0444,0.0417,0.0358,0.0329,0.0306,0.0292,0.0284,0.0205,0.019,0.0348,0.0347,0.0346,0.0346,0,0,0.056,0.0594,0.06,0.0619,0.0627,0.0642,0.0651,0.0653,0.0661,0.0638,0.0631,0.0563,0.0533,0.0498,0.0444,0.038,0.0298,0.034,0.0335,0.0277,0.0118,0.0125,0.0109,0.0262,0.0259,0.0258,0.0076,0,0.0599,0.0658,0.066,0.0706,0.0732,0.0717,0.073,0.0723,0.0709,0.0696,0.062,0.0596,0.055,0.0534,0.0457,0.0339,0.0263,0.035,0.0126,0.0119,0.0135,0.0094,0.0251,0.0065,0.0062,0.0059,0.0057,0,0.0643,0.068,0.0741,0.0772,0.0783,0.0811,0.0825,0.0835,0.0794,0.0778,0.0725,0.0667,0.0573,0.0539,0.0327,0.0384,0.0262,0.0165,0.0155,0.0133,0.0099,0.0072,0.003,0.0032,0.0034,0.0036,0.0038,0,0.0675,0.073,0.0787,0.0799,0.0835,0.0864,0.0887,0.0872,0.0885,0.0839,0.0831,0.0702,0.065,0.0476,0.0292,0.0304,0.0049,0.0033,-0.0085,-0.0087,-0.0064,-0.0058,-0.0127,-0.0127,-0.0127,-0.0126,-0.0126,0,0.0708,0.0752,0.0819,0.085,0.0923,0.0927,0.0987,0.0983,0.0973,0.098,0.0888,0.0845,0.0634,0.047,0.029,0.0059,0.0037,-0.0088,-0.0136,-0.0035,-0.0023,-0.0075,-0.0067,-0.0133,-0.0132,-0.013,-0.0129,0,0.0724,0.0765,0.0838,0.091,0.0944,0.1003,0.1077,0.1107,0.1093,0.1093,0.1085,0.0943,0.0738,0.0506,0.0215,0.0072,-0.0157,-0.0236,-0.011,-0.0147,-0.024,-0.0227,-0.0389,-0.039,-0.0391,-0.0392,-0.0393,0,0.0734,0.0778,0.0894,0.095,0.0995,0.1086,0.1146,0.1175,0.1198,0.1144,0.1135,0.0965,0.084,0.0432,0.019,-0.0167,-0.0209,-0.0331,-0.0284,-0.0239,-0.0269,-0.0254,-0.0239,-0.0395,-0.0395,-0.0396,-0.0396,0,0.075,0.0803,0.0863,0.099,0.1082,0.1177,0.126,0.128,0.129,0.1281,0.1166,0.0968,0.0732,0.0433,0.0161,-0.0094,-0.0252,-0.0343,-0.0342,-0.03,-0.0248,-0.0274,-0.0258,-0.04,-0.0399,-0.0399,-0.0399,0,0.0763,0.0813,0.0904,0.101,0.1123,0.1217,0.127,0.129,0.1314,0.1251,0.1208,0.0963,0.0828,0.0468,0.021,-0.003,-0.0086,-0.0161,-0.017,-0.0169,-0.0041,0.0061,-0.0046,0,0,0,0,0,0.0767,0.0821,0.0914,0.1032,0.1141,0.1221,0.1311,0.1347,0.1357,0.1288,0.1249,0.103,0.0662,0.0502,0.0262,0.0181,-0.0133,-0.0108,-0.0225,-0.0421,-0.0417,-0.0301,0,0,0,0,0,0,0.0769,0.0853,0.0902,0.1021,0.1106,0.124,0.1305,0.1327,0.1281,0.1253,0.1061,0.0975,0.0618,0.0802,0.026,0.0187,0.008,-0.0274,-0.0279,-0.0424,-0.042,-0.0416,-0.0296,0,0,0,0,0]}]]